Location: Newark
(51.0500°N, 12.4500°E)
Time: 01:12:42
(UTC+00:00)

Tiros 1 - Pass Details

Date: 19 February 2020
Orbit: 630 x 664 km, 48.4° (Epoch: 28 March)

Event Time Altitude Azimuth Distance (km) Brightness Sun altitude
Rises 06:28:47 0° 275° (W) 2,918 9.9 1.0°
Reaches altitude 10° 06:31:08 10° 270° (W) 2,009 9.1 1.3°
Maximum altitude 06:35:37 52° 195° (SSW) 787 7.7 2.0°
Drops below altitude 10° 06:40:06 10° 119° (ESE) 2,012 12.1 2.7°
Sets 06:42:28 0° 115° (ESE) 2,923 14.0 3.0°
